| time (UTC) | temp F | wind direction | speed knots | gust knots | rain 1hr in | rain 24hr in | rain mn in | humidity % | barometer mb |
| 20260502203106 | 64 | 360 | 0.9 | 1.7 | 0.00 | 0.00 | 0.00 | 86 | 1017.1 |
| 20260502202053 | 64 | 325 | 1.7 | 3.5 | 0.00 | 0.00 | 0.00 | 86 | 1016.8 |
| 20260502201038 | 64 | 6 | 0.9 | 2.6 | 0.00 | 0.00 | 0.00 | 85 | 1016.9 |
| 20260502200027 | 64 | 346 | 0.9 | 1.7 | 0.00 | 0.00 | 0.00 | 85 | 1016.9 |
| 20260502195137 | 64 | 21 | 1.7 | 3.5 | 0.00 | 0.00 | 0.00 | 85 | 1016.6 |
| 20260502194105 | 64 | 319 | 1.7 | 3.5 | 0.00 | 0.00 | 0.00 | 84 | 1016.5 |
| 20260502193054 | 64 | 21 | 0.9 | 1.7 | 0.00 | 0.00 | 0.00 | 83 | 1016.7 |
| 20260502192042 | 64 | 10 | 0.9 | 3.5 | 0.00 | 0.00 | 0.00 | 83 | 1016.6 |
| 20260502191027 | 65 | 338 | 1.7 | 4.3 | 0.00 | 0.00 | 0.00 | 82 | 1016.4 |
| 20260502190112 | 65 | 15 | 1.7 | 3.5 | 0.00 | 0.00 | 0.00 | 81 | 1016.4 |
| 20260502185103 | 65 | 8 | 1.7 | 3.5 | 0.00 | 0.00 | 0.00 | 81 | 1016.2 |
| 20260502184052 | 65 | 352 | 2.6 | 5.2 | 0.00 | 0.00 | 0.00 | 80 | 1016.4 |
| 20260502183040 | 66 | 260 | 1.7 | 4.3 | 0.00 | 0.00 | 0.00 | 80 | 1016.6 |
| 20260502182030 | 66 | 281 | 1.7 | 2.6 | 0.00 | 0.00 | 0.00 | 79 | 1016.7 |
| 20260502181116 | 66 | 298 | 1.7 | 3.5 | 0.00 | 0.00 | 0.00 | 79 | 1016.8 |
| 20260502180106 | 66 | 322 | 1.7 | 3.5 | 0.00 | 0.00 | 0.00 | 78 | 1017.0 |
| 20260502164036 | 68 | 15 | 1.7 | 3.5 | 0.00 | 0.00 | 0.00 | 73 | 1017.2 |
| 20260502163024 | 68 | 317 | 1.7 | 3.5 | 0.00 | 0.00 | 0.00 | 72 | 1017.2 |
| 20260502162115 | 69 | 224 | 1.7 | 3.5 | 0.00 | 0.00 | 0.00 | 73 | 1017.3 |
| 20260502161103 | 69 | 260 | 2.6 | 6.1 | 0.00 | 0.00 | 0.00 | 72 | 1017.3 |
| 20260502152111 | 73 | 263 | 2.6 | 7.0 | 0.00 | 0.00 | 0.00 | 64 | 1017.2 |
| 20260502151101 | 72 | 296 | 2.6 | 5.2 | 0.00 | 0.00 | 0.00 | 68 | 1017.5 |
| 20260502123110 | 73 | 259 | 2.6 | 5.2 | 0.00 | 0.00 | 0.00 | 64 | 1019.0 |
| 20260502122100 | 72 | 17 | 2.6 | 7.0 | 0.00 | 0.00 | 0.00 | 68 | 1019.0 |
| 20260502121110 | 71 | 254 | 3.5 | 7.0 | 0.00 | 0.00 | 0.00 | 71 | 1019.3 |
| 20260502115024 | 72 | 327 | 2.6 | 4.3 | 0.00 | 0.00 | 0.00 | 69 | 1019.3 |
| 20260502114114 | 72 | 349 | 0.9 | 3.5 | 0.00 | 0.00 | 0.00 | 70 | 1019.4 |
| 20260502113102 | 71 | 358 | 1.7 | 4.3 | 0.00 | 0.00 | 0.00 | 70 | 1019.7 |
| 20260502112053 | 72 | 346 | 2.6 | 6.1 | 0.00 | 0.00 | 0.00 | 70 | 1019.6 |
| 20260502111044 | 72 | 30 | 3.5 | 7.0 | 0.00 | 0.00 | 0.00 | 70 | 1019.5 |
| 20260502110032 | 73 | 265 | 2.6 | 3.5 | 0.00 | 0.00 | 0.00 | 62 | 1019.5 |
| 20260502105041 | 73 | 344 | 2.6 | 4.3 | 0.00 | 0.00 | 0.00 | 63 | 1019.7 |
| 20260502104112 | 72 | 141 | 1.7 | 5.2 | 0.00 | 0.00 | 0.00 | 65 | 1019.8 |
| 20260502103122 | 73 | 141 | 1.7 | 4.3 | 0.00 | 0.00 | 0.00 | 61 | 1019.9 |
| 20260502102049 | 73 | 33 | 0.9 | 2.6 | 0.00 | 0.00 | 0.00 | 63 | 1019.9 |
| 20260502101039 | 73 | 353 | 1.7 | 2.6 | 0.00 | 0.00 | 0.00 | 62 | 1019.9 |
| 20260502091037 | 72 | 280 | 1.7 | 2.6 | 0.00 | 0.00 | 0.00 | 67 | 1020.1 |
| 20260502071023 | 70 | 30 | 0.0 | 1.7 | 0.00 | 0.00 | 0.00 | 86 | 1020.4 |
| 20260502070112 | 69 | 0.0 | 0.9 | 0.00 | 0.00 | 0.00 | 89 | 1020.2 | |
| 20260502065058 | 66 | 315 | 0.0 | 1.7 | 0.00 | 0.00 | 0.00 | 89 | 1020.1 |
| 20260502064043 | 64 | 342 | 0.9 | 1.7 | 0.00 | 0.00 | 0.00 | 88 | 1020.4 |
| 20260502063031 | 64 | 332 | 0.9 | 1.7 | 0.00 | 0.00 | 0.00 | 88 | 1020.5 |
| 20260502062019 | 63 | 327 | 0.9 | 1.7 | 0.00 | 0.00 | 0.00 | 90 | 1020.6 |
| 20260502061104 | 63 | 315 | 0.0 | 1.7 | 0.00 | 0.00 | 0.00 | 91 | 1020.5 |
| 20260502060053 | 63 | 315 | 0.0 | 1.7 | 0.00 | 0.00 | 0.00 | 91 | 1020.2 |
| 20260502055038 | 63 | 0.0 | 0.0 | 0.00 | 0.00 | 0.00 | 91 | 1020.2 | |
| 20260502054029 | 63 | 315 | 0.0 | 1.7 | 0.00 | 0.00 | 0.00 | 91 | 1020.1 |
| 20260502053115 | 63 | 0.0 | 0.9 | 0.00 | 0.00 | 0.00 | 91 | 1020.0 | |
| 20260502052103 | 63 | 324 | 0.9 | 1.7 | 0.00 | 0.00 | 0.00 | 90 | 1020.1 |
| 20260502051052 | 63 | 333 | 0.9 | 2.6 | 0.00 | 0.00 | 0.00 | 90 | 1020.0 |
| 20260502050037 | 63 | 0.0 | 0.9 | 0.00 | 0.00 | 0.00 | 90 | 1020.0 | |
| 20260502045022 | 63 | 0 | 0.0 | 1.7 | 0.00 | 0.00 | 0.00 | 90 | 1020.1 |
| 20260502044111 | 63 | 0.0 | 0.9 | 0.00 | 0.01 | 0.00 | 90 | 1020.1 | |
| 20260502043059 | 63 | 293 | 0.0 | 1.7 | 0.00 | 0.01 | 0.00 | 90 | 1020.2 |
| 20260502042046 | 63 | 0.0 | 0.9 | 0.00 | 0.01 | 0.00 | 91 | 1020.0 | |
| 20260502041034 | 63 | 0 | 0.0 | 1.7 | 0.00 | 0.01 | 0.00 | 91 | 1020.1 |
| 20260502040022 | 63 | 0.0 | 0.9 | 0.00 | 0.01 | 0.00 | 91 | 1020.2 | |
| 20260502035109 | 63 | 0.0 | 0.0 | 0.00 | 0.02 | 0.00 | 91 | 1020.4 | |
| 20260502034057 | 63 | 0.0 | 0.0 | 0.00 | 0.02 | 0.00 | 91 | 1020.4 | |
| 20260502033109 | 63 | 0.0 | 0.0 | 0.00 | 0.02 | 0.00 | 91 | 1020.5 | |
| 20260502032036 | 63 | 0.0 | 0.0 | 0.00 | 0.02 | 0.00 | 91 | 1020.4 | |
| 20260502031025 | 63 | 0.0 | 0.0 | 0.00 | 0.02 | 0.00 | 91 | 1020.5 | |
| 20260502030115 | 63 | 0.0 | 0.9 | 0.00 | 0.02 | 0.00 | 91 | 1020.4 | |
| 20260502025121 | 63 | 45 | 0.0 | 1.7 | 0.00 | 0.02 | 0.00 | 91 | 1020.4 |
| 20260502024044 | 63 | 45 | 0.0 | 1.7 | 0.00 | 0.02 | 0.00 | 91 | 1020.3 |
| 20260502023033 | 63 | 15 | 0.0 | 1.7 | 0.00 | 0.02 | 0.00 | 92 | 1020.4 |
| 20260502022022 | 63 | 45 | 0.0 | 1.7 | 0.00 | 0.02 | 0.00 | 92 | 1020.4 |
| 20260502021111 | 63 | 0.0 | 0.9 | 0.00 | 0.02 | 0.00 | 92 | 1020.5 | |
| 20260502015051 | 63 | 45 | 0.0 | 1.7 | 0.00 | 0.02 | 0.00 | 92 | 1020.6 |
| 20260502014059 | 63 | 354 | 0.9 | 1.7 | 0.00 | 0.02 | 0.00 | 92 | 1020.5 |
| 20260502013028 | 63 | 30 | 0.0 | 1.7 | 0.00 | 0.02 | 0.00 | 92 | 1020.7 |
| 20260502012118 | 63 | 0.0 | 0.9 | 0.00 | 0.02 | 0.00 | 92 | 1020.8 | |
| 20260502011103 | 63 | 0.0 | 0.9 | 0.00 | 0.02 | 0.00 | 92 | 1020.9 | |
| 20260502010153 | 63 | 90 | 0.0 | 1.7 | 0.00 | 0.02 | 0.00 | 92 | 1021.0 |
| 20260502005041 | 63 | 0.0 | 0.9 | 0.00 | 0.02 | 0.00 | 92 | 1021.2 | |
| 20260502004031 | 63 | 0.0 | 0.0 | 0.00 | 0.02 | 0.00 | 92 | 1021.2 | |
| 20260502003041 | 63 | 0.0 | 0.0 | 0.00 | 0.02 | 0.00 | 92 | 1021.1 | |
| 20260502002110 | 63 | 45 | 0.0 | 1.7 | 0.00 | 0.02 | 0.00 | 92 | 1021.2 |
| 20260502001057 | 63 | 90 | 0.0 | 1.7 | 0.00 | 0.02 | 0.00 | 91 | 1021.6 |
| 20260502000047 | 64 | 90 | 0.0 | 1.7 | 0.00 | 0.02 | 0.00 | 90 | 1021.7 |
| 20260501235036 | 64 | 45 | 0.0 | 1.7 | 0.00 | 0.02 | 0.00 | 90 | 1021.8 |
| 20260501234025 | 64 | 345 | 0.0 | 1.7 | 0.00 | 0.02 | 0.00 | 90 | 1022.0 |
| 20260501233115 | 64 | 359 | 0.9 | 1.7 | 0.00 | 0.02 | 0.00 | 90 | 1022.0 |
| 20260501232104 | 64 | 315 | 0.0 | 1.7 | 0.00 | 0.02 | 0.00 | 90 | 1022.1 |
| 20260501231054 | 64 | 18 | 0.9 | 1.7 | 0.00 | 0.02 | 0.00 | 89 | 1022.0 |
| 20260501230043 | 64 | 45 | 0.9 | 1.7 | 0.00 | 0.02 | 0.00 | 89 | 1021.8 |
| 20260501225031 | 64 | 360 | 0.0 | 1.7 | 0.00 | 0.02 | 0.00 | 89 | 1021.9 |
| 20260501224020 | 64 | 354 | 0.9 | 1.7 | 0.00 | 0.02 | 0.00 | 88 | 1021.9 |
| 20260501223108 | 64 | 7 | 0.9 | 1.7 | 0.00 | 0.02 | 0.00 | 88 | 1021.9 |
| 20260501222052 | 64 | 0 | 0.9 | 1.7 | 0.00 | 0.02 | 0.00 | 88 | 1021.9 |
| 20260501221037 | 64 | 358 | 0.9 | 2.6 | 0.00 | 0.02 | 0.00 | 88 | 1021.9 |
| 20260501220117 | 64 | 310 | 0.9 | 1.7 | 0.00 | 0.02 | 0.00 | 87 | 1022.1 |
| 20260501215102 | 64 | 39 | 0.9 | 1.7 | 0.00 | 0.02 | 0.02 | 87 | 1022.2 |
| 20260501214047 | 64 | 260 | 0.0 | 2.6 | 0.00 | 0.02 | 0.02 | 87 | 1022.2 |
| 20260501213036 | 64 | 24 | 0.0 | 1.7 | 0.00 | 0.02 | 0.02 | 86 | 1022.2 |
| 20260501212141 | 64 | 19 | 0.9 | 3.5 | 0.00 | 0.02 | 0.02 | 86 | 1022.2 |
| 20260501211106 | 64 | 331 | 1.7 | 2.6 | 0.00 | 0.02 | 0.02 | 85 | 1022.2 |
| 20260501210055 | 64 | 339 | 0.9 | 2.6 | 0.00 | 0.02 | 0.02 | 85 | 1022.3 |
| 20260501205103 | 64 | 325 | 0.9 | 1.7 | 0.00 | 0.02 | 0.02 | 85 | 1022.3 |
| 20260501204033 | 64 | 346 | 0.9 | 1.7 | 0.00 | 0.02 | 0.02 | 84 | 1022.3 |